• Join FlightAware (Why Join?)
  • Login
  • US Flag 
02:32PM EST


 

Airport Tracker/Info


-or-


 

Live Flight TrackerFlight Track Log ✈ SWA378 ✈ 30-May-2013 ✈ KSJC - KLAX

Flight Track Log - Related Links

Times and Time Zones

All times are in EDT time to prevent confusion due to time zone crossing. See the SWA378 flight status page for this flight to view local times or setup timezone preferences in your user account.

Time Position Orientation Groundspeed Altitude Reporting Facility
EDT Latitude Longitude Course Direction KTS MPH feet Rate Location/Type
11:38AM 37.3667 -121.9333 322° Northwest 150 173 1,000  Level Northern Cal TRACON
11:39AM 37.4167 -121.9833 322° Northwest 189 217 3,600 2,000 Climbing Northern Cal TRACON
11:40AM 37.4333 -121.9333 67° East 232 267 5,000 750 Climbing Northern Cal TRACON
11:41AM 37.4000 -121.8667 122° Southeast 232 267 5,100 1,475 Climbing Northern Cal TRACON
11:42AM 37.3475 -121.8089 139° Southeast 241 277 8,000 2,829 Climbing Oakland Center
11:43AM 37.2792 -121.7322 138° Southeast 308 354 10,900 3,220 Climbing Oakland Center
11:44AM 37.2067 -121.6497 138° Southeast 349 402 14,600 3,366 Climbing Oakland Center
11:45AM 37.1281 -121.5617 138° Southeast 375 432 17,800 3,122 Climbing Oakland Center
11:46AM 37.0519 -121.4811 140° Southeast 387 445 21,000 3,122 Climbing Oakland Center
11:47AM 36.9522 -121.3689 138° Southeast 403 464 24,200 2,683 Climbing Oakland Center
11:48AM 36.8625 -121.2722 139° Southeast 423 487 26,500 1,887 Climbing Oakland Center
11:49AM 36.7783 -121.1864 141° Southeast 448 516 28,100 1,951 Climbing Oakland Center
11:50AM 36.6608 -121.0556 138° Southeast 469 540 30,500 2,000 Climbing Oakland Center
11:51AM 36.5578 -120.9478 140° Southeast 481 554 32,200 1,756 Climbing Oakland Center
11:52AM 36.4539 -120.8350 139° Southeast 493 567 34,100 1,366 Climbing Oakland Center
11:53AM 36.3508 -120.7231 139° Southeast 492 566 35,000 439 Climbing Oakland Center
11:54AM 36.2467 -120.6111 139° Southeast 495 570 35,000  Level Oakland Center
11:55AM 36.1428 -120.5017 140° Southeast 490 564 35,000  Level Oakland Center
11:56AM 36.0386 -120.3903 139° Southeast 493 567 35,000  Level Oakland Center
11:57AM 35.9350 -120.2814 140° Southeast 489 563 35,000  Level Oakland Center
11:58AM 35.8117 -120.1503 139° Southeast 486 559 35,000  Level Oakland Center
11:59AM 35.7078 -120.0419 140° Southeast 485 558 35,000  Level Oakland Center
12:00PM 35.6025 -119.9367 141° Southeast 484 557 35,000  Level Oakland Center
12:01PM 35.4908 -119.8428 146° Southeast 482 555 35,000  Level Oakland Center
12:02PM 35.3797 -119.7483 145° Southeast 483 556 35,000  Level Oakland Center
12:03PM 35.2692 -119.6533 145° Southeast 481 554 35,000 -94 Level Los Angeles Center
12:04PM 35.1600 -119.5583 145° Southeast 481 554 34,800 -1,694 Descending Los Angeles Center
12:05PM 35.0275 -119.4467 145° Southeast 481 554 31,500 -2,806 Descending Los Angeles Center
12:06PM 34.9183 -119.3539 145° Southeast 477 549 29,000 -2,371 Descending Los Angeles Center
12:07PM 34.8139 -119.2633 145° Southeast 465 535 26,600 -2,274 Descending Los Angeles Center
12:08PM 34.7119 -119.1786 146° Southeast 448 516 24,300 -2,177 Descending Los Angeles Center
12:10PM 34.6094 -119.0931 146° Southeast 441 507 22,100 -2,129 Descending Los Angeles Center
12:11PM 34.5144 -119.0131 145° Southeast 413 475 19,900 -2,177 Descending Los Angeles Center
12:12PM 34.4225 -118.9375 146° Southeast 398 458 17,600 -2,371 Descending Los Angeles Center
12:13PM 34.3106 -118.8650 152° Southeast 377 434 15,000 -2,177 Descending Los Angeles Center
12:14PM 34.2103 -118.8286 163° South 373 429 13,100 -1,500 Descending Los Angeles Center
12:15PM 34.1128 -118.7919 163° South 368 423 11,900 -1,016 Descending Los Angeles Center
12:16PM 34.0342 -118.7178 142° Southeast 328 377 11,000 -1,210 Descending Los Angeles Center
12:17PM 34.0256 -118.6206 96° East 292 336 9,400 -1,694 Descending Los Angeles Center
12:18PM 34.0150 -118.5147 97° East 293 337 7,500 -1,161 Descending Los Angeles Center
12:19PM 34.0147 -118.4253 90° East 266 306 7,000 -960 Descending Los Angeles Center
12:20PM 34.0225 -118.3364 84° East 264 304 5,500 -1,344 Descending Los Angeles Center
12:21PM 34.0328 -118.2506 82° East 261 300 4,200 -1,355 Descending Los Angeles Center
12:22PM 34.0447 -118.1700 80° East 248 285 2,700 -774 Descending Los Angeles Center
12:23PM 34.0108 -118.1228 131° Southeast 215 247 2,600 -293 Descending Los Angeles Center
12:23PM 33.9833 -118.1333 198° South 201 231 2,300 -387 Descending Southern California TRACON
12:24PM 33.9761 -118.1706 257° West 202 232 2,200 -58 Descending Los Angeles Center
12:25PM 33.9686 -118.2461 263° West 194 223 2,200 -290 Level Los Angeles Center
12:26PM 33.9614 -118.3089 262° West 193 222 1,600 -677 Descending Los Angeles Center
12:27PM 33.9578 -118.3581 265° West 166 191 800 -726 Descending Los Angeles Center
12:28PM 33.9528 -118.4044 263° West 149 171 100 -677 Descending Los Angeles Center
12:30PM 33.9425 -118.4081 259° West  Level Estimated
12:37PM 33.9425 -118.4081 259° West  Level Estimated